Weather History for Cape Cod CGAS, MA

Change the Weather History Date:

Tuesday, January 1, 2013

  Actual Average Record
Temperature  
Mean Temperature 32 °F -  
Max Temperature 40 °F 39 °F 57 °F (2005)
Min Temperature 23 °F 24 °F 1 °F (1997)
Degree Days  
Heating Degree Days 34    
Moisture  
Dew Point 21 °F    
Average Humidity 64    
Maximum Humidity 80    
Minimum Humidity 37    
Precipitation  
Precipitation 0.00 in - - ()
Sea Level Pressure  
Sea Level Pressure 29.80 in    
Wind  
Wind Speed 14 mph (WNW)    
Max Wind Speed 22 mph    
Max Gust Speed 31 mph    
Visibility 10 miles    
Events      
Averages and records for this station are not official NWS values.
T = Trace of Precipitation, MM = Missing Value Source: NWS Daily Summary

Daily Weather History Graph

Daily Weather History Graph

Search for Another Location

Airport:

Trip Planner

Search our weather history database for the weather conditions in past years. The results will help you decide how hot, cold, wet, or windy it might be!

Date:

Astronomy

Jan. 01, 2013 Rise Set
Actual Time 7:09 AM EST 4:22 PM EST
Civil Twilight 6:37 AM EST 4:54 PM EST
Nautical Twilight 6:02 AM EST 5:28 PM EST
Astronomical Twilight 5:29 AM EST 6:02 PM EST
Moon 8:54 PM EST (1/1) 9:16 AM EST (1/1)
Length of Visible Light 10h 16m
Length of Day
9h 13m
Waning Gibbous, 83% of the Moon is Illuminated
Jan 1
Waning Gibbous
Jan 4
Last Quarter
Jan 11
New
Jan 18
First Quarter
Jan 26
Full

Hourly Weather History & Observations

Time (EST) Temp. Windchill Dew Point Humidity Pressure Visibility Wind Dir Wind Speed Gust Speed Precip Events Conditions
12:15 AM 33.8 °F 25.3 °F 24.8 °F 70% 29.80 in 10.0 mi West 11.5 mph - N/A   Clear
12:35 AM 33.8 °F 25.8 °F 24.8 °F 70% 29.80 in 10.0 mi West 10.4 mph - N/A   Clear
12:55 AM 32.0 °F 23.6 °F 26.6 °F 80% 29.79 in 10.0 mi West 10.4 mph - N/A   Clear
1:15 AM 32.0 °F 24.8 °F 26.6 °F 80% 29.79 in 10.0 mi West 8.1 mph - N/A   Clear
1:35 AM 33.8 °F 25.8 °F 26.6 °F 75% 29.78 in 10.0 mi West 10.4 mph - N/A   Clear
1:55 AM 33.8 °F 25.3 °F 24.8 °F 70% 29.79 in 10.0 mi West 11.5 mph - N/A   Clear
2:15 AM 33.8 °F 25.3 °F 26.6 °F 75% 29.79 in 10.0 mi West 11.5 mph - N/A   Clear
2:35 AM 35.6 °F 26.2 °F 24.8 °F 65% 29.78 in 10.0 mi West 15.0 mph 18.4 mph N/A   Clear
2:55 AM 33.8 °F 24.3 °F 26.6 °F 75% 29.79 in 10.0 mi West 13.8 mph 18.4 mph N/A   Clear
3:15 AM 35.6 °F 26.2 °F 24.8 °F 65% 29.78 in 10.0 mi West 15.0 mph 18.4 mph N/A   Clear
3:35 AM 33.8 °F 24.3 °F 26.6 °F 75% 29.76 in 10.0 mi West 13.8 mph - N/A   Clear
3:55 AM 35.6 °F 26.2 °F 26.6 °F 70% 29.76 in 10.0 mi West 15.0 mph - N/A   Clear
4:15 AM 33.8 °F 24.8 °F 24.8 °F 70% 29.76 in 10.0 mi West 12.7 mph - N/A   Clear
4:35 AM 33.8 °F 24.3 °F 24.8 °F 70% 29.76 in 10.0 mi West 13.8 mph 20.7 mph N/A   Clear
4:55 AM 33.8 °F 23.9 °F 24.8 °F 70% 29.77 in 10.0 mi West 15.0 mph 21.9 mph N/A   Clear
5:15 AM 33.8 °F 23.5 °F 24.8 °F 70% 29.77 in 10.0 mi West 16.1 mph 21.9 mph N/A   Clear
5:35 AM 33.8 °F 23.5 °F 24.8 °F 70% 29.77 in 10.0 mi West 16.1 mph 23.0 mph N/A   Clear
5:55 AM 33.8 °F 23.5 °F 26.6 °F 75% 29.77 in 10.0 mi West 16.1 mph 21.9 mph N/A   Clear
6:15 AM 33.8 °F 23.9 °F 26.6 °F 75% 29.78 in 10.0 mi West 15.0 mph 19.6 mph N/A   Clear
6:35 AM 33.8 °F 23.2 °F 26.6 °F 75% 29.78 in 10.0 mi West 17.3 mph 21.9 mph N/A   Clear
6:55 AM 35.6 °F 25.5 °F 26.6 °F 70% 29.78 in 10.0 mi West 17.3 mph 21.9 mph N/A   Clear
7:15 AM 33.8 °F 24.3 °F 26.6 °F 75% 29.78 in 10.0 mi West 13.8 mph - N/A   Clear
7:35 AM 33.8 °F 22.8 °F 26.6 °F 75% 29.78 in 10.0 mi West 18.4 mph 25.3 mph N/A   Clear
7:55 AM 33.8 °F 24.3 °F 26.6 °F 75% 29.78 in 10.0 mi West 13.8 mph 19.6 mph N/A   Clear
8:15 AM 33.8 °F 23.5 °F 26.6 °F 75% 29.78 in 10.0 mi West 16.1 mph 24.2 mph N/A   Clear
8:35 AM 35.6 °F 25.5 °F 26.6 °F 70% 29.78 in 10.0 mi West 17.3 mph 25.3 mph N/A   Clear
8:55 AM 35.6 °F 25.5 °F 26.6 °F 70% 29.78 in 10.0 mi West 17.3 mph - N/A   Clear
9:15 AM 35.6 °F 25.2 °F 26.6 °F 70% 29.79 in 10.0 mi West 18.4 mph 27.6 mph N/A   Unknown
9:35 AM 35.6 °F 25.5 °F 26.6 °F 70% 29.79 in 10.0 mi West 17.3 mph 24.2 mph N/A   Unknown
9:55 AM 35.6 °F 24.8 °F 26.6 °F 70% 29.79 in 10.0 mi West 19.6 mph 25.3 mph N/A   Unknown
10:15 AM 35.6 °F 25.2 °F 26.6 °F 70% 29.79 in 10.0 mi West 18.4 mph 25.3 mph N/A   Unknown
10:35 AM 35.6 °F 24.2 °F 24.8 °F 65% 29.78 in 10.0 mi West 21.9 mph 31.1 mph N/A   Unknown
10:55 AM 35.6 °F 25.5 °F 24.8 °F 65% 29.77 in 10.0 mi West 17.3 mph 25.3 mph N/A   Unknown
11:15 AM 35.6 °F 25.9 °F 24.8 °F 65% 29.77 in 10.0 mi West 16.1 mph 28.8 mph N/A   Unknown
11:35 AM 35.6 °F 24.5 °F 24.8 °F 65% 29.77 in 10.0 mi West 20.7 mph 26.5 mph N/A   Unknown
11:55 AM 35.6 °F 24.2 °F 23.0 °F 60% 29.76 in 10.0 mi WNW 21.9 mph 27.6 mph N/A   Unknown
12:15 PM 33.8 °F 21.9 °F 19.4 °F 56% 29.76 in 10.0 mi West 21.9 mph 29.9 mph N/A   Unknown
12:35 PM 33.8 °F 22.5 °F 19.4 °F 56% 29.75 in 10.0 mi West 19.6 mph 26.5 mph N/A   Unknown
12:55 PM 33.8 °F 22.8 °F 19.4 °F 56% 29.74 in 10.0 mi West 18.4 mph 27.6 mph N/A   Unknown
1:15 PM 33.8 °F 22.5 °F 17.6 °F 52% 29.75 in 10.0 mi West 19.6 mph 26.5 mph N/A   Unknown
1:35 PM 33.8 °F 22.2 °F 19.4 °F 56% 29.76 in 10.0 mi West 20.7 mph 24.2 mph N/A   Unknown
1:55 PM 33.8 °F 24.8 °F 19.4 °F 56% 29.75 in 10.0 mi WNW 12.7 mph 25.3 mph N/A   Unknown
2:15 PM 32.0 °F 20.8 °F 19.4 °F 60% 29.75 in 10.0 mi WNW 17.3 mph 23.0 mph N/A   Unknown
2:35 PM 32.0 °F 19.5 °F 19.4 °F 60% 29.76 in 10.0 mi West 21.9 mph 29.9 mph N/A   Unknown
2:55 PM 32.0 °F 21.2 °F 17.6 °F 55% 29.75 in 10.0 mi West 16.1 mph 25.3 mph N/A   Unknown
3:15 PM 32.0 °F 22.1 °F 17.6 °F 55% 29.76 in 10.0 mi WNW 13.8 mph 24.2 mph N/A   Unknown
3:35 PM 32.0 °F 22.5 °F 17.6 °F 55% 29.77 in 10.0 mi WNW 12.7 mph - N/A   Clear
3:55 PM 32.0 °F 23.0 °F 17.6 °F 55% 29.76 in 10.0 mi WNW 11.5 mph 23.0 mph N/A   Clear
4:15 PM 32.0 °F 24.8 °F 17.6 °F 55% 29.78 in 10.0 mi NW 8.1 mph 21.9 mph N/A   Clear
4:35 PM 32.0 °F 21.2 °F 15.8 °F 51% 29.78 in 10.0 mi NW 16.1 mph 20.7 mph N/A   Clear
4:55 PM 32.0 °F 22.5 °F 17.6 °F 55% 29.79 in 10.0 mi NW 12.7 mph 18.4 mph N/A   Clear
5:15 PM 30.2 °F 18.5 °F 15.8 °F 55% 29.80 in 10.0 mi NW 17.3 mph 21.9 mph N/A   Clear
5:35 PM 30.2 °F 17.8 °F 15.8 °F 55% 29.81 in 10.0 mi WNW 19.6 mph 26.5 mph N/A   Clear
5:55 PM 30.2 °F 19.3 °F 15.8 °F 55% 29.81 in 10.0 mi WNW 15.0 mph - N/A   Clear
6:15 PM 28.4 °F 17.5 °F 15.8 °F 59% 29.82 in 10.0 mi WNW 13.8 mph 26.5 mph N/A   Clear
6:35 PM 28.4 °F 17.0 °F 15.8 °F 59% 29.84 in 10.0 mi WNW 15.0 mph 20.7 mph N/A   Clear
6:55 PM 28.4 °F 16.6 °F 15.8 °F 59% 29.84 in 10.0 mi WNW 16.1 mph 23.0 mph N/A   Clear
7:15 PM 28.4 °F 19.1 °F 15.8 °F 59% 29.85 in 10.0 mi WNW 10.4 mph 20.7 mph N/A   Clear
7:35 PM 26.6 °F 16.2 °F 15.8 °F 64% 29.86 in 10.0 mi WNW 11.5 mph - N/A   Clear
7:55 PM 26.6 °F 17.5 °F 15.8 °F 64% 29.86 in 10.0 mi WNW 9.2 mph - N/A   Clear
8:15 PM 26.6 °F 16.2 °F 14.0 °F 59% 29.87 in 10.0 mi NW 11.5 mph 17.3 mph N/A   Clear
8:35 PM 26.6 °F 16.2 °F 14.0 °F 59% 29.88 in 10.0 mi WNW 11.5 mph - N/A   Clear
8:55 PM 26.6 °F 16.2 °F 14.0 °F 59% 29.88 in 10.0 mi WNW 11.5 mph - N/A   Clear
9:15 PM 24.8 °F 14.6 °F 14.0 °F 64% 29.88 in 10.0 mi WNW 10.4 mph - N/A   Clear
9:35 PM 24.8 °F 14.6 °F 14.0 °F 64% 29.88 in 10.0 mi NW 10.4 mph - N/A   Clear
9:55 PM 24.8 °F 14.6 °F 14.0 °F 64% 29.89 in 10.0 mi NW 10.4 mph 16.1 mph N/A   Clear
10:15 PM 24.8 °F 16.1 °F 14.0 °F 64% 29.89 in 10.0 mi NW 8.1 mph - N/A   Clear
10:35 PM 24.8 °F 16.1 °F 14.0 °F 64% 29.90 in 10.0 mi NW 8.1 mph - N/A   Clear
10:55 PM 23.0 °F 13.9 °F 14.0 °F 68% 29.91 in 10.0 mi NW 8.1 mph - N/A   Clear
11:15 PM 23.0 °F 13.1 °F 14.0 °F 68% 29.91 in 10.0 mi NW 9.2 mph - N/A   Clear
11:35 PM 23.0 °F 13.9 °F 12.2 °F 63% 29.91 in 10.0 mi NW 8.1 mph - N/A   Clear
11:55 PM 23.0 °F 14.7 °F 12.2 °F 63% 29.91 in 10.0 mi NW 6.9 mph - N/A   Clear